Riverside, CA

7:21 AM PDT on July 28, 2017 (GMT -0700)
Riverside Municipal

Weather History for KRAL - November, 2014

Change the Weather History Date:

Wednesday, November 26, 2014

  Actual Average Record
Temperature  
Mean Temperature 68 °F 57 °F  
Max Temperature 90 °F 70 °F 92 °F (1933)
Min Temperature 46 °F 44 °F 27 °F (1931)
Degree Days  
Heating Degree Days 0 8  
Month to date heating degree days 54 132  
Since 1 July heating degree days 55 167  
Cooling Degree Days 3 0  
Month to date cooling degree days 40 24  
Year to date cooling degree days 2335 1753  
Growing Degree Days 19 (Base 50)    
Moisture  
Dew Point 24 °F    
Average Humidity 24    
Maximum Humidity 42    
Minimum Humidity 6    
Precipitation  
Precipitation 0.00 in 0.04 in 0.76 in (2008)
Month to date precipitation 0.28 0.86  
Year to date precipitation 2.37 10.73  
Since 1 July precipitation 0.65  
Snow  
Snow 0.00 in - - ()
Month to date snowfall 0.0  
Year to date snowfall 0.0  
Snow Depth 0.00 in    
Sea Level Pressure  
Sea Level Pressure 30.17 in    
Wind  
Wind Speed 4 mph (ENE)    
Max Wind Speed 8 mph    
Max Gust Speed 12 mph    
Visibility 10 miles    
Events      
T = Trace of Precipitation, MM = Missing Value Source: NWS Daily Summary

Daily Weather History Graph

Daily Weather History Graph

Search for Another Location

Airport or City:

Trip Planner

Search our weather history database for the weather conditions in past years. The results will help you decide how hot, cold, wet, or windy it might be!

Date:

Astronomy

Nov. 26, 2014 Rise Set
Actual Time 6:32 AM PST 4:41 PM PST
Civil Twilight 6:05 AM PST 5:08 PM PST
Nautical Twilight 5:34 AM PST 5:39 PM PST
Astronomical Twilight 5:04 AM PST 6:09 PM PST
Moon 10:12 AM PST (11/26) 9:14 PM PST (11/26)
Length of Visible Light 11h 03m
Length of Day
10h 09m
Waxing Crescent, 22% of the Moon is Illuminated
Nov 26
Waxing Crescent
Nov 29
First Quarter
Dec 6
Full
Dec 14
Last Quarter
Dec 21
New

Hourly Weather History & Observations

Time (PST) Temp. Dew Point Humidity Pressure Visibility Wind Dir Wind Speed Gust Speed Precip Events Conditions
12:53 AM 53.1 °F 23.0 °F 31% 30.24 in 10.0 mi ENE 5.8 mph - N/A   Clear
1:53 AM 50.0 °F 24.1 °F 36% 30.23 in 10.0 mi East 4.6 mph - N/A   Clear
2:53 AM 51.1 °F 25.0 °F 36% 30.22 in 10.0 mi NE 4.6 mph - N/A   Clear
3:53 AM 48.0 °F 26.1 °F 42% 30.22 in 10.0 mi NE 4.6 mph - N/A   Clear
4:53 AM 50.0 °F 25.0 °F 38% 30.21 in 10.0 mi ENE 5.8 mph - N/A   Clear
5:53 AM 51.1 °F 24.1 °F 35% 30.22 in 10.0 mi NE 4.6 mph - N/A   Clear
6:53 AM 50.0 °F 25.0 °F 38% 30.22 in 10.0 mi Variable 3.5 mph - N/A   Clear
7:53 AM 55.0 °F 27.0 °F 34% 30.23 in 10.0 mi Variable 4.6 mph - N/A   Clear
8:53 AM 62.1 °F 25.0 °F 24% 30.23 in 10.0 mi NE 3.5 mph - N/A   Clear
9:53 AM 69.1 °F 28.0 °F 22% 30.23 in 10.0 mi Calm Calm - N/A   Clear
10:53 AM 73.9 °F 28.0 °F 18% 30.20 in 10.0 mi Calm Calm - N/A   Clear
11:53 AM 82.9 °F 28.0 °F 14% 30.16 in 10.0 mi SSE 5.8 mph - N/A   Clear
12:53 PM 87.1 °F 16.0 °F 7% 30.13 in 10.0 mi Variable 4.6 mph - N/A   Clear
1:53 PM 88.0 °F 17.1 °F 7% 30.11 in 10.0 mi Variable 5.8 mph - N/A   Clear
2:53 PM 90.0 °F 16.0 °F 7% 30.10 in 10.0 mi Variable 4.6 mph - N/A   Clear
3:53 PM 87.1 °F 19.0 °F 8% 30.11 in 10.0 mi Calm Calm - N/A   Clear
4:53 PM 81.0 °F 19.0 °F 10% 30.11 in 10.0 mi Calm Calm - N/A   Clear
5:53 PM 75.9 °F 25.0 °F 15% 30.12 in 10.0 mi ESE 3.5 mph - N/A   Clear
6:53 PM 71.1 °F 27.0 °F 19% 30.13 in 10.0 mi SE 3.5 mph - N/A   Clear
7:53 PM 66.9 °F 27.0 °F 22% 30.14 in 10.0 mi ESE 5.8 mph - N/A   Clear
8:53 PM 66.0 °F 27.0 °F 23% 30.14 in 10.0 mi NE 5.8 mph - N/A   Clear
9:53 PM 63.0 °F 26.1 °F 25% 30.14 in 10.0 mi East 6.9 mph - N/A   Clear
10:53 PM 60.1 °F 28.0 °F 30% 30.13 in 10.0 mi East 4.6 mph - N/A   Clear
11:53 PM 60.1 °F 27.0 °F 28% 30.12 in 10.0 mi NNE 3.5 mph - N/A   Clear